Location: La Brionne
(46.1728°N, 1.7849°E)
Time: 07:39:00
(UTC+00:00)

Terra - Pass Details

Date: 16 June 2021
Orbit: 701 x 703 km, 98.2° (Epoch: 02 August)

Event Time Altitude Azimuth Distance (km) Brightness Sun altitude
Exits shadow 22:44:45 16° 222° (SW) 1,820 3.7 -18.7°
Maximum altitude 22:47:26 25° 266° (W) 1,420 3.5 -18.8°
Drops below altitude 10° 22:51:21 10° 321° (NW) 2,181 5.4 -19.0°
Sets 22:54:00 0° 335° (NNW) 3,104 6.7 -19.1°
